| time (UTC) | temp F | wind direction | speed MPH | gust MPH | rain 1hr in | rain 24hr in | rain mn in | humidity % | barometer mb |
| 20260906221506 | 79 | 242 | 6.0 | 21.0 | 0.00 | 0.00 | 0.00 | 31 | 1002.1 |
| 20260906220009 | 79 | 215 | 2.0 | 13.0 | 0.00 | 0.00 | 0.00 | 31 | 1002.2 |
| 20260906214505 | 79 | 348 | 3.0 | 15.0 | 0.00 | 0.00 | 0.00 | 31 | 1002.3 |
| 20260906213002 | 79 | 250 | 4.0 | 9.0 | 0.00 | 0.00 | 0.00 | 30 | 1002.4 |
| 20260906211501 | 79 | 316 | 5.0 | 12.0 | 0.00 | 0.00 | 0.00 | 30 | 1002.2 |
| 20260906210100 | 79 | 343 | 7.0 | 16.0 | 0.00 | 0.00 | 0.00 | 31 | 1002.1 |
| 20260906210000 | 79 | 8 | 10.0 | 16.0 | 0.00 | 0.00 | 0.00 | 30 | 1002.1 |
| 20260906204604 | 79 | 330 | 6.0 | 15.0 | 0.00 | 0.00 | 0.00 | 31 | 1002.3 |
| 20260906203058 | 79 | 352 | 11.0 | 20.0 | 0.00 | 0.00 | 0.00 | 30 | 1002.4 |
| 20260906201555 | 79 | 339 | 10.0 | 20.0 | 0.00 | 0.00 | 0.00 | 29 | 1002.5 |
| 20260906200054 | 81 | 323 | 9.0 | 21.0 | 0.00 | 0.00 | 0.00 | 29 | 1002.7 |
| 20260906194550 | 80 | 60 | 2.0 | 14.0 | 0.00 | 0.00 | 0.00 | 29 | 1003.2 |
| 20260906193047 | 79 | 333 | 6.0 | 21.0 | 0.00 | 0.00 | 0.00 | 30 | 1003.1 |
| 20260906191555 | 79 | 28 | 13.0 | 22.0 | 0.00 | 0.00 | 0.00 | 29 | 1003.2 |
| 20260906190044 | 78 | 139 | 9.0 | 21.0 | 0.00 | 0.00 | 0.00 | 29 | 1003.2 |
| 20260906184551 | 79 | 352 | 16.0 | 37.0 | 0.00 | 0.00 | 0.00 | 28 | 1003.6 |
| 20260906183045 | 78 | 26 | 14.0 | 26.0 | 0.00 | 0.00 | 0.00 | 29 | 1003.7 |
| 20260906181538 | 78 | 31 | 5.0 | 34.0 | 0.00 | 0.00 | 0.00 | 29 | 1004.0 |
| 20260906180046 | 78 | 20 | 11.0 | 22.0 | 0.00 | 0.00 | 0.00 | 28 | 1004.2 |
| 20260906174538 | 78 | 62 | 8.0 | 24.0 | 0.00 | 0.00 | 0.00 | 28 | 1004.4 |
| 20260906173029 | 77 | 184 | 8.0 | 19.0 | 0.00 | 0.00 | 0.00 | 29 | 1004.7 |
| 20260906171528 | 77 | 331 | 8.0 | 18.0 | 0.00 | 0.00 | 0.00 | 29 | 1004.9 |
| 20260906170027 | 77 | 12 | 8.0 | 17.0 | 0.00 | 0.00 | 0.00 | 29 | 1004.9 |
| 20260906164525 | 77 | 339 | 5.0 | 18.0 | 0.00 | 0.00 | 0.00 | 29 | 1005.2 |
| 20260906163025 | 76 | 32 | 5.0 | 13.0 | 0.00 | 0.00 | 0.00 | 29 | 1005.2 |
| 20260906161522 | 76 | 337 | 5.0 | 18.0 | 0.00 | 0.00 | 0.00 | 29 | 1005.6 |
| 20260906160019 | 75 | 304 | 4.0 | 13.0 | 0.00 | 0.00 | 0.00 | 29 | 1005.6 |
| 20260906154519 | 74 | 336 | 8.0 | 12.0 | 0.00 | 0.00 | 0.00 | 29 | 1005.8 |
| 20260906153019 | 74 | 316 | 6.0 | 19.0 | 0.00 | 0.00 | 0.00 | 30 | 1005.8 |
| 20260906151517 | 73 | 336 | 6.0 | 18.0 | 0.00 | 0.00 | 0.00 | 30 | 1005.7 |
| 20260906150017 | 73 | 358 | 2.0 | 10.0 | 0.00 | 0.00 | 0.00 | 30 | 1005.8 |
| 20260906144518 | 73 | 18 | 6.0 | 13.0 | 0.00 | 0.00 | 0.00 | 30 | 1005.8 |
| 20260906143014 | 72 | 49 | 7.0 | 11.0 | 0.00 | 0.00 | 0.00 | 30 | 1005.9 |
| 20260906141514 | 71 | 240 | 6.0 | 10.0 | 0.00 | 0.00 | 0.00 | 30 | 1005.7 |
| 20260906140015 | 71 | 25 | 5.0 | 12.0 | 0.00 | 0.00 | 0.00 | 30 | 1005.6 |
| 20260906134513 | 71 | 352 | 6.0 | 14.0 | 0.00 | 0.00 | 0.00 | 32 | 1005.4 |
| 20260906133008 | 70 | 18 | 7.0 | 11.0 | 0.00 | 0.00 | 0.00 | 32 | 1005.3 |
| 20260906131507 | 71 | 4 | 6.0 | 14.0 | 0.00 | 0.00 | 0.00 | 31 | 1005.1 |
| 20260906130005 | 71 | 321 | 9.0 | 12.0 | 0.00 | 0.00 | 0.00 | 30 | 1004.9 |
| 20260906124508 | 71 | 360 | 5.0 | 11.0 | 0.00 | 0.00 | 0.00 | 30 | 1005.1 |
| 20260906123005 | 70 | 43 | 6.0 | 13.0 | 0.00 | 0.00 | 0.00 | 30 | 1005.2 |
| 20260906121600 | 71 | 40 | 3.0 | 9.0 | 0.00 | 0.00 | 0.00 | 29 | 1005.2 |
| 20260906114558 | 72 | 315 | 5.0 | 10.0 | 0.00 | 0.00 | 0.00 | 28 | 1005.1 |
| 20260906113056 | 71 | 41 | 4.0 | 11.0 | 0.00 | 0.00 | 0.00 | 28 | 1005.1 |
| 20260906111555 | 72 | 51 | 3.0 | 10.0 | 0.00 | 0.00 | 0.00 | 27 | 1005.1 |
| 20260906110054 | 72 | 67 | 4.0 | 11.0 | 0.00 | 0.00 | 0.00 | 26 | 1005.1 |
| 20260906104553 | 72 | 79 | 6.0 | 11.0 | 0.00 | 0.00 | 0.00 | 26 | 1005.0 |
| 20260906103052 | 72 | 63 | 6.0 | 15.0 | 0.00 | 0.00 | 0.00 | 26 | 1005.0 |
| 20260906101556 | 72 | 72 | 4.0 | 14.0 | 0.00 | 0.00 | 0.00 | 25 | 1004.9 |
| 20260906100050 | 72 | 8 | 6.0 | 12.0 | 0.00 | 0.00 | 0.00 | 25 | 1004.9 |
| 20260906094550 | 72 | 346 | 6.0 | 14.0 | 0.00 | 0.00 | 0.00 | 26 | 1004.8 |
| 20260906093056 | 72 | 343 | 10.0 | 17.0 | 0.00 | 0.00 | 0.00 | 26 | 1004.9 |
| 20260906091548 | 73 | 1 | 11.0 | 19.0 | 0.00 | 0.00 | 0.00 | 26 | 1004.9 |
| 20260906090046 | 72 | 53 | 8.0 | 18.0 | 0.00 | 0.00 | 0.00 | 26 | 1004.8 |
| 20260906084552 | 72 | 101 | 13.0 | 21.0 | 0.00 | 0.00 | 0.00 | 26 | 1004.9 |
| 20260906083043 | 72 | 22 | 6.0 | 17.0 | 0.00 | 0.00 | 0.00 | 27 | 1004.9 |
| 20260906081540 | 72 | 20 | 7.0 | 17.0 | 0.00 | 0.00 | 0.00 | 26 | 1004.7 |
| 20260906080051 | 72 | 37 | 9.0 | 15.0 | 0.00 | 0.00 | 0.00 | 28 | 1004.8 |
| 20260906074541 | 73 | 328 | 10.0 | 17.0 | 0.00 | 0.00 | 0.00 | 27 | 1004.8 |
| 20260906073033 | 73 | 70 | 3.0 | 14.0 | 0.00 | 0.00 | 0.00 | 25 | 1004.7 |
| 20260906071532 | 73 | 58 | 7.0 | 12.0 | 0.00 | 0.00 | 0.00 | 25 | 1004.8 |
| 20260906070029 | 74 | 16 | 5.0 | 12.0 | 0.00 | 0.00 | 0.00 | 24 | 1004.8 |
| 20260906064533 | 74 | 63 | 6.0 | 10.0 | 0.00 | 0.00 | 0.00 | 24 | 1004.8 |
| 20260906063025 | 74 | 30 | 6.0 | 15.0 | 0.00 | 0.00 | 0.00 | 24 | 1004.5 |
| 20260906061521 | 75 | 36 | 9.0 | 14.0 | 0.00 | 0.00 | 0.00 | 23 | 1004.4 |
| 20260906060022 | 75 | 338 | 6.0 | 12.0 | 0.00 | 0.00 | 0.00 | 22 | 1004.4 |
| 20260906054518 | 75 | 347 | 9.0 | 16.0 | 0.00 | 0.00 | 0.00 | 23 | 1004.3 |
| 20260906053020 | 76 | 28 | 7.0 | 14.0 | 0.00 | 0.00 | 0.00 | 23 | 1004.2 |
| 20260906051514 | 76 | 331 | 6.0 | 17.0 | 0.00 | 0.00 | 0.00 | 22 | 1004.1 |
| 20260906050014 | 77 | 348 | 6.0 | 19.0 | 0.00 | 0.00 | 0.00 | 20 | 1004.1 |
| 20260906044512 | 76 | 330 | 7.0 | 15.0 | 0.00 | 0.00 | 0.00 | 20 | 1004.3 |
| 20260906043013 | 77 | 349 | 7.0 | 12.0 | 0.00 | 0.00 | 0.00 | 20 | 1004.3 |
| 20260906041513 | 78 | 195 | 3.0 | 12.0 | 0.00 | 0.00 | 0.00 | 18 | 1004.4 |
| 20260906040011 | 79 | 154 | 6.0 | 17.0 | 0.00 | 0.00 | 0.00 | 17 | 1004.2 |
| 20260906034512 | 79 | 124 | 4.0 | 14.0 | 0.00 | 0.00 | 0.00 | 17 | 1003.9 |
| 20260906033016 | 78 | 8 | 5.0 | 16.0 | 0.00 | 0.00 | 0.00 | 19 | 1004.1 |
| 20260906031510 | 78 | 72 | 5.0 | 12.0 | 0.00 | 0.00 | 0.00 | 20 | 1003.7 |
| 20260906030009 | 78 | 42 | 2.0 | 11.0 | 0.00 | 0.00 | 0.00 | 20 | 1003.6 |
| 20260906024508 | 78 | 72 | 5.0 | 9.0 | 0.00 | 0.00 | 0.00 | 19 | 1003.3 |
| 20260906023007 | 79 | 9 | 3.0 | 7.0 | 0.00 | 0.00 | 0.00 | 17 | 1003.0 |
| 20260906021512 | 80 | 56 | 1.0 | 5.0 | 0.00 | 0.00 | 0.00 | 17 | 1002.7 |
| 20260906020007 | 81 | 219 | 6.0 | 12.0 | 0.00 | 0.00 | 0.00 | 16 | 1002.5 |
| 20260906014517 | 83 | 231 | 12.0 | 16.0 | 0.00 | 0.00 | 0.00 | 15 | 1002.5 |
| 20260906013005 | 84 | 215 | 12.0 | 19.0 | 0.00 | 0.00 | 0.00 | 14 | 1002.4 |
| 20260906011505 | 85 | 239 | 3.0 | 15.0 | 0.00 | 0.00 | 0.00 | 16 | 1002.7 |
| 20260906010004 | 85 | 243 | 11.0 | 19.0 | 0.00 | 0.00 | 0.00 | 15 | 1002.7 |
| 20260906004504 | 86 | 301 | 3.0 | 9.0 | 0.00 | 0.00 | 0.00 | 14 | 1002.5 |
| 20260906003003 | 85 | 312 | 3.0 | 11.0 | 0.00 | 0.00 | 0.00 | 14 | 1002.5 |
| 20260906001502 | 85 | 300 | 3.0 | 9.0 | 0.00 | 0.00 | 0.00 | 14 | 1002.8 |
| 20260906000002 | 86 | 344 | 3.0 | 7.0 | 0.00 | 0.00 | 0.00 | 14 | 1002.7 |
| 20260905234603 | 85 | 233 | 6.0 | 12.0 | 0.00 | 0.00 | 0.00 | 14 | 1002.8 |
| 20260905233123 | 86 | 8 | 4.0 | 10.0 | 0.00 | 0.00 | 0.00 | 14 | 1002.8 |
| 20260905231558 | 85 | 326 | 3.0 | 12.0 | 0.00 | 0.00 | 0.00 | 13 | 1002.9 |
| 20260905230055 | 85 | 325 | 3.0 | 10.0 | 0.00 | 0.00 | 0.00 | 13 | 1003.2 |
| 20260905224611 | 85 | 276 | 7.0 | 13.0 | 0.00 | 0.00 | 0.00 | 13 | 1003.3 |
| 20260905223055 | 84 | 262 | 5.0 | 15.0 | 0.00 | 0.00 | 0.00 | 13 | 1003.3 |